Track STARLINK-4016 now! 10-day predictions STARLINK-4016 is classified as:
1 52603U 22052F 22224.58334491 -.00019410 00000-0 -12041-2 0 9993 2 52603 53.2191 17.9577 0001641 58.8770 283.8570 15.08858056 1305